Time,TemperatureF,DewpointF,PressureIn,WindDirection,WindDirectionDegrees,WindSpeedMPH,WindSpeedGustMPH,Humidity,HourlyPrecipIn,Conditions,Clouds,dailyrainin,SoftwareType,DateUTC
2013-12-31 00:00:00,40.7,37.4,31.67,NNW,327,0.0,0.0,88,0.00,,,0.00,Wunderground v.1.15,2013-12-31 02:00:00,
2013-12-31 00:05:00,41.0,37.7,31.67,NNW,327,0.0,0.0,88,0.00,,,0.00,Wunderground v.1.15,2013-12-31 02:05:00,
2013-12-31 00:15:00,41.1,37.8,31.67,NNW,327,0.0,0.0,88,0.00,,,0.00,Wunderground v.1.15,2013-12-31 02:15:00,
2013-12-31 00:24:00,41.1,38.0,31.66,NNW,327,0.0,0.0,88,0.00,,,0.00,weatherlink.com 1.10,2013-12-31 02:24:00,
2013-12-31 00:30:00,41.1,37.5,31.70,NNW,327,0.0,0.0,87,0.00,,,0.00,Wunderground v.1.15,2013-12-31 02:30:00,
2013-12-31 00:40:00,41.1,37.5,31.70,NNW,327,0.0,0.0,87,0.00,,,0.00,Wunderground v.1.15,2013-12-31 02:40:00,
2013-12-31 00:45:00,41.2,37.6,31.70,NNW,327,0.0,0.0,87,0.00,,,0.00,Wunderground v.1.15,2013-12-31 02:45:00,
2013-12-31 00:50:00,41.3,37.7,31.70,NNW,327,0.0,0.0,87,0.00,,,0.00,Wunderground v.1.15,2013-12-31 02:50:00,
2013-12-31 00:56:00,41.3,38.0,31.70,NNW,327,0.0,0.0,87,0.00,,,0.00,weatherlink.com 1.10,2013-12-31 02:56:00,
2013-12-31 01:05:00,41.5,37.6,31.70,NNW,327,0.0,0.0,86,0.00,,,0.00,Wunderground v.1.15,2013-12-31 03:05:00,
2013-12-31 01:12:00,41.8,38.0,31.70,NNW,327,0.0,0.0,85,0.00,,,0.00,weatherlink.com 1.10,2013-12-31 03:12:00,
2013-12-31 01:20:00,42.0,38.1,31.70,NNW,327,0.0,0.0,86,0.00,,,0.00,Wunderground v.1.15,2013-12-31 03:20:00,
2013-12-31 01:25:00,41.9,38.3,31.70,NNW,327,0.0,0.0,87,0.00,,,0.00,Wunderground v.1.15,2013-12-31 03:25:00,
2013-12-31 01:35:00,41.4,38.1,31.70,NNW,327,0.0,0.0,88,0.00,,,0.00,Wunderground v.1.15,2013-12-31 03:35:00,
2013-12-31 01:40:00,41.3,38.3,31.70,NNW,327,0.0,0.0,89,0.00,,,0.00,Wunderground v.1.15,2013-12-31 03:40:00,
2013-12-31 01:45:00,41.2,38.0,31.70,NNW,327,0.0,0.0,89,0.00,,,0.00,weatherlink.com 1.10,2013-12-31 03:45:00,
2013-12-31 01:55:00,41.1,38.1,31.70,NNW,327,0.0,0.0,89,0.00,,,0.00,Wunderground v.1.15,2013-12-31 03:55:00,
2013-12-31 02:01:00,41.1,38.0,31.70,NNW,327,0.0,0.0,88,0.00,,,0.00,weatherlink.com 1.10,2013-12-31 04:01:00,
2013-12-31 02:10:00,41.4,38.1,31.70,NNW,327,0.0,0.0,88,0.00,,,0.00,Wunderground v.1.15,2013-12-31 04:10:00,
2013-12-31 02:15:00,41.4,38.4,31.70,NNW,327,0.0,0.0,89,0.00,,,0.00,Wunderground v.1.15,2013-12-31 04:15:00,
2013-12-31 02:25:00,41.3,38.3,31.70,NNW,327,0.0,0.0,89,0.00,,,0.00,Wunderground v.1.15,2013-12-31 04:25:00,
2013-12-31 02:34:00,41.1,38.0,31.70,NNW,327,0.0,0.0,90,0.00,,,0.00,weatherlink.com 1.10,2013-12-31 04:34:00,
2013-12-31 02:40:00,41.0,38.6,31.70,NNW,327,0.0,0.0,91,0.00,,,0.00,Wunderground v.1.15,2013-12-31 04:40:00,
2013-12-31 02:49:00,40.9,38.0,31.70,NNW,327,0.0,0.0,91,0.00,,,0.00,weatherlink.com 1.10,2013-12-31 04:49:00,
2013-12-31 02:55:00,40.8,38.7,31.70,NNW,327,1.0,3.0,92,0.00,,,0.00,Wunderground v.1.15,2013-12-31 04:55:00,
2013-12-31 03:05:00,40.8,38.4,31.70,NW,319,2.0,2.0,91,0.00,,,0.00,Wunderground v.1.15,2013-12-31 05:05:00,
2013-12-31 03:10:00,40.8,38.4,31.70,NW,319,2.0,2.0,91,0.00,,,0.00,Wunderground v.1.15,2013-12-31 05:10:00,
2013-12-31 03:15:00,40.9,38.5,31.70,NW,319,1.0,2.0,91,0.00,,,0.00,Wunderground v.1.15,2013-12-31 05:15:00,
2013-12-31 03:22:00,40.9,38.0,31.64,NW,320,0.0,1.0,91,0.00,,,0.00,weatherlink.com 1.10,2013-12-31 05:22:00,
2013-12-31 03:25:00,40.9,38.5,31.64,NW,320,0.0,0.0,91,0.00,,,0.00,Wunderground v.1.15,2013-12-31 05:25:00,
2013-12-31 03:35:00,40.8,38.4,31.65,NW,320,1.0,1.0,91,0.00,,,0.00,Wunderground v.1.15,2013-12-31 05:35:00,
2013-12-31 03:45:00,40.7,38.3,31.65,NW,320,0.0,1.0,91,0.00,,,0.00,Wunderground v.1.15,2013-12-31 05:45:00,
2013-12-31 03:50:00,40.6,38.2,31.65,NW,319,0.0,1.0,91,0.00,,,0.00,Wunderground v.1.15,2013-12-31 05:50:00,
2013-12-31 04:00:00,40.6,38.5,31.65,NW,320,1.0,1.0,92,0.00,,,0.00,Wunderground v.1.15,2013-12-31 06:00:00,
2013-12-31 04:05:00,40.5,38.4,31.65,NW,319,0.0,1.0,92,0.00,,,0.00,Wunderground v.1.15,2013-12-31 06:05:00,
2013-12-31 04:15:00,40.3,38.2,31.65,NW,320,1.0,2.0,92,0.00,,,0.00,Wunderground v.1.15,2013-12-31 06:15:00,
2013-12-31 04:25:00,40.0,37.9,31.65,NW,320,0.0,1.0,92,0.00,,,0.00,Wunderground v.1.15,2013-12-31 06:25:00,
2013-12-31 04:35:00,39.6,37.5,31.65,NW,319,0.0,0.0,92,0.00,,,0.00,Wunderground v.1.15,2013-12-31 06:35:00,
2013-12-31 04:42:00,39.2,37.0,31.65,NW,319,0.0,0.0,93,0.00,,,0.00,weatherlink.com 1.10,2013-12-31 06:42:00,
2013-12-31 04:50:00,39.0,37.1,31.65,NW,319,0.0,0.0,93,0.00,,,0.00,Wunderground v.1.15,2013-12-31 06:50:00,
2013-12-31 04:58:00,38.5,37.0,31.65,NW,320,0.0,3.0,93,0.00,,,0.00,weatherlink.com 1.10,2013-12-31 06:58:00,
2013-12-31 05:05:00,38.3,36.2,31.65,NW,320,0.0,0.0,92,0.00,,,0.00,Wunderground v.1.15,2013-12-31 07:05:00,
2013-12-31 05:14:00,38.3,36.0,31.65,NW,320,0.0,0.0,93,0.00,,,0.00,weatherlink.com 1.10,2013-12-31 07:14:00,
2013-12-31 05:20:00,38.3,36.2,31.65,NW,320,0.0,0.0,92,0.00,,,0.00,Wunderground v.1.15,2013-12-31 07:20:00,
2013-12-31 05:25:00,38.2,36.1,31.65,NW,320,0.0,0.0,92,0.00,,,0.00,Wunderground v.1.15,2013-12-31 07:25:00,
2013-12-31 05:30:00,38.0,36.0,31.65,NW,320,0.0,0.0,93,0.00,,,0.00,weatherlink.com 1.10,2013-12-31 07:30:00,
2013-12-31 05:40:00,37.7,35.9,31.65,NW,320,0.0,0.0,93,0.00,,,0.00,Wunderground v.1.15,2013-12-31 07:40:00,
2013-12-31 05:45:00,37.7,35.9,31.65,NW,319,0.0,2.0,93,0.00,,,0.00,Wunderground v.1.15,2013-12-31 07:45:00,
2013-12-31 05:55:00,39.4,32.1,31.65,NW,313,5.0,6.0,75,0.00,,,0.00,Wunderground v.1.15,2013-12-31 07:55:00,
2013-12-31 06:02:00,40.8,30.0,31.65,NNW,346,1.0,9.0,64,0.00,,,0.00,weatherlink.com 1.10,2013-12-31 08:02:00,
2013-12-31 06:10:00,40.0,32.0,31.65,NNW,345,1.0,1.0,73,0.00,,,0.00,Wunderground v.1.15,2013-12-31 08:10:00,
2013-12-31 06:15:00,39.3,32.4,31.65,NNW,346,0.0,1.0,76,0.00,,,0.00,Wunderground v.1.15,2013-12-31 08:15:00,
2013-12-31 06:25:00,37.4,32.7,31.63,NNW,345,0.0,0.0,83,0.00,,,0.00,Wunderground v.1.15,2013-12-31 08:25:00,
2013-12-31 06:35:00,36.9,31.0,31.63,NNW,345,1.0,2.0,79,0.00,,,0.00,weatherlink.com 1.10,2013-12-31 08:35:00,
2013-12-31 06:45:00,36.8,29.9,31.63,NNW,343,2.0,2.0,76,0.00,,,0.00,Wunderground v.1.15,2013-12-31 08:45:00,
2013-12-31 06:50:00,37.2,30.0,31.63,NNW,343,2.0,3.0,75,0.00,,,0.00,Wunderground v.1.15,2013-12-31 08:50:00,
2013-12-31 07:00:00,37.9,30.0,31.63,NNW,342,2.0,2.0,73,0.00,,,0.00,Wunderground v.1.15,2013-12-31 09:00:00,
2013-12-31 07:05:00,37.7,29.1,31.63,NNW,343,2.0,3.0,71,0.00,,,0.00,Wunderground v.1.15,2013-12-31 09:05:00,
2013-12-31 07:10:00,37.7,28.4,31.63,NNW,342,3.0,3.0,69,0.00,,,0.00,Wunderground v.1.15,2013-12-31 09:10:00,
2013-12-31 07:15:00,37.9,28.3,31.63,NNW,331,3.0,5.0,68,0.00,,,0.00,Wunderground v.1.15,2013-12-31 09:15:00,
2013-12-31 07:23:00,38.0,28.0,31.61,NNW,334,5.0,6.0,67,0.00,,,0.00,weatherlink.com 1.10,2013-12-31 09:23:00,
2013-12-31 07:30:00,38.1,28.1,31.61,NNW,334,4.0,4.0,67,0.00,,,0.00,Wunderground v.1.15,2013-12-31 09:30:00,
2013-12-31 07:39:00,38.3,28.0,31.61,NNW,334,1.0,5.0,66,0.00,,,0.00,weatherlink.com 1.10,2013-12-31 09:39:00,
2013-12-31 07:45:00,38.0,28.0,31.61,NNW,334,2.0,3.0,67,0.00,,,0.00,Wunderground v.1.15,2013-12-31 09:45:00,
2013-12-31 07:55:00,37.6,27.6,31.61,NNW,334,2.0,2.0,67,0.00,,,0.00,Wunderground v.1.15,2013-12-31 09:55:00,
2013-12-31 08:00:00,37.3,27.7,31.61,NNW,334,2.0,2.0,68,0.00,,,0.00,Wunderground v.1.15,2013-12-31 10:00:00,
2013-12-31 08:10:00,36.6,27.4,31.61,NNW,334,2.0,2.0,69,0.00,,,0.00,Wunderground v.1.15,2013-12-31 10:10:00,
2013-12-31 08:15:00,36.4,27.5,31.61,NNW,334,1.0,2.0,70,0.00,,,0.00,Wunderground v.1.15,2013-12-31 10:15:00,
2013-12-31 08:25:00,34.0,27.5,31.61,NNW,334,2.0,2.0,77,0.00,,,0.00,Wunderground v.1.15,2013-12-31 10:25:00,
2013-12-31 08:34:00,33.9,27.4,31.61,NNW,334,1.0,2.0,77,0.00,,,0.00,Wunderground v.1.15,2013-12-31 10:34:00,
2013-12-31 08:40:00,33.6,27.5,31.61,NNW,334,1.0,1.0,78,0.00,,,0.00,Wunderground v.1.15,2013-12-31 10:40:00,
2013-12-31 08:50:00,33.1,27.0,31.61,NNW,334,0.0,0.0,78,0.00,,,0.00,Wunderground v.1.15,2013-12-31 10:50:00,
2013-12-31 08:59:00,33.5,27.0,31.61,NNW,334,1.0,3.0,77,0.00,,,0.00,weatherlink.com 1.10,2013-12-31 10:59:00,
2013-12-31 09:05:00,33.4,27.3,31.61,NNW,334,1.0,1.0,78,0.00,,,0.00,Wunderground v.1.15,2013-12-31 11:05:00,
2013-12-31 09:10:00,33.0,26.9,31.61,NNW,334,1.0,1.0,78,0.00,,,0.00,Wunderground v.1.15,2013-12-31 11:10:00,
2013-12-31 09:15:00,32.4,26.9,31.61,NNW,334,2.0,2.0,80,0.00,,,0.00,Wunderground v.1.15,2013-12-31 11:15:00,
2013-12-31 09:25:00,30.8,26.8,31.61,NNW,334,2.0,2.0,85,0.00,,,0.00,Wunderground v.1.15,2013-12-31 11:25:00,
2013-12-31 09:32:00,30.2,27.0,31.61,NNW,334,2.0,3.0,87,0.00,,,0.00,weatherlink.com 1.10,2013-12-31 11:32:00,
2013-12-31 09:40:00,29.8,27.0,31.61,NNW,334,2.0,2.0,89,0.00,,,0.00,Wunderground v.1.15,2013-12-31 11:40:00,
2013-12-31 09:48:00,30.6,27.0,31.79,NNW,334,2.0,3.0,88,0.00,,,0.00,weatherlink.com 1.10,2013-12-31 11:48:00,
2013-12-31 09:55:00,31.4,27.4,31.78,NNW,334,2.0,2.0,85,0.00,,,0.00,Wunderground v.1.15,2013-12-31 11:55:00,
2013-12-31 10:04:00,33.8,26.0,31.78,NW,314,4.0,8.0,74,0.00,,,0.00,weatherlink.com 1.10,2013-12-31 12:04:00,
2013-12-31 10:10:00,34.4,27.0,31.78,WNW,303,3.0,4.0,74,0.00,,,0.00,Wunderground v.1.15,2013-12-31 12:10:00,
2013-12-31 10:20:00,36.2,26.3,31.78,NW,310,5.0,5.0,67,0.00,,,0.00,Wunderground v.1.15,2013-12-31 12:20:00,
2013-12-31 10:25:00,35.3,26.8,31.78,NW,309,4.0,5.0,71,0.00,,,0.00,Wunderground v.1.15,2013-12-31 12:25:00,
2013-12-31 10:35:00,34.4,24.9,31.78,NW,309,2.0,2.0,68,0.00,,,0.00,Wunderground v.1.15,2013-12-31 12:35:00,
2013-12-31 10:45:00,33.7,26.3,31.81,NW,310,0.0,1.0,74,0.00,,,0.00,Wunderground v.1.15,2013-12-31 12:45:00,
2013-12-31 10:52:00,32.9,26.0,31.81,NW,309,0.0,1.0,75,0.00,,,0.00,weatherlink.com 1.10,2013-12-31 12:52:00,
2013-12-31 11:00:00,32.0,25.9,31.81,NW,309,1.0,3.0,78,0.00,,,0.00,Wunderground v.1.15,2013-12-31 13:00:00,
2013-12-31 11:05:00,30.6,25.8,31.81,NW,309,2.0,3.0,82,0.00,,,0.00,Wunderground v.1.15,2013-12-31 13:05:00,
2013-12-31 11:15:00,29.5,26.1,31.81,NW,309,3.0,4.0,87,0.00,,,0.00,Wunderground v.1.15,2013-12-31 13:15:00,
2013-12-31 11:24:00,30.6,27.0,31.81,NW,306,2.0,5.0,85,0.00,,,0.00,weatherlink.com 1.10,2013-12-31 13:24:00,
2013-12-31 11:30:00,30.9,26.6,31.81,NW,306,3.0,3.0,84,0.00,,,0.00,Wunderground v.1.15,2013-12-31 13:30:00,
2013-12-31 11:35:00,31.5,26.9,31.81,WNW,292,3.0,3.0,83,0.00,,,0.00,Wunderground v.1.15,2013-12-31 13:35:00,
2013-12-31 11:40:00,32.4,27.0,31.81,WNW,292,1.0,5.0,80,0.00,,,0.00,weatherlink.com 1.10,2013-12-31 13:40:00,
2013-12-31 11:50:00,34.5,27.4,31.81,West,272,2.0,2.0,75,0.00,,,0.00,Wunderground v.1.15,2013-12-31 13:50:00,
2013-12-31 11:56:00,35.1,27.0,31.81,West,271,0.0,6.0,73,0.00,,,0.00,weatherlink.com 1.10,2013-12-31 13:56:00,
2013-12-31 12:05:00,34.9,28.7,31.81,West,271,1.0,1.0,78,0.00,,,0.00,Wunderground v.1.15,2013-12-31 14:05:00,
2013-12-31 12:12:00,34.4,29.0,31.81,West,271,2.0,3.0,82,0.00,,,0.00,weatherlink.com 1.10,2013-12-31 14:12:00,
2013-12-31 12:20:00,34.4,30.1,31.81,SSW,211,1.0,1.0,84,0.00,,,0.00,Wunderground v.1.15,2013-12-31 14:20:00,
2013-12-31 12:28:00,35.9,30.0,31.81,SSW,211,2.0,3.0,80,0.00,,,0.00,weatherlink.com 1.10,2013-12-31 14:28:00,
2013-12-31 12:35:00,36.9,30.4,31.81,SSW,211,2.0,2.0,77,0.00,,,0.00,Wunderground v.1.15,2013-12-31 14:35:00,
2013-12-31 12:44:00,38.3,31.0,31.81,SSW,205,2.0,4.0,74,0.00,,,0.00,weatherlink.com 1.10,2013-12-31 14:44:00,
2013-12-31 12:50:00,38.6,28.9,31.81,SW,218,3.0,4.0,68,0.00,,,0.00,Wunderground v.1.15,2013-12-31 14:50:00,
2013-12-31 13:00:00,39.3,28.5,31.81,WSW,250,3.0,3.0,65,0.00,,,0.00,Wunderground v.1.15,2013-12-31 15:00:00,
2013-12-31 13:05:00,39.7,28.5,31.81,WSW,250,3.0,3.0,64,0.00,,,0.00,Wunderground v.1.15,2013-12-31 15:05:00,
2013-12-31 13:15:00,40.4,28.4,31.81,WSW,249,3.0,5.0,62,0.00,,,0.00,Wunderground v.1.15,2013-12-31 15:15:00,
2013-12-31 13:25:00,40.9,27.2,31.81,West,261,5.0,5.0,58,0.00,,,0.00,Wunderground v.1.15,2013-12-31 15:25:00,
2013-12-31 13:33:00,41.2,26.0,31.81,WSW,237,2.0,9.0,55,0.00,,,0.00,weatherlink.com 1.10,2013-12-31 15:33:00,
2013-12-31 13:40:00,41.6,25.3,31.81,West,277,4.0,7.0,52,0.00,,,0.00,Wunderground v.1.15,2013-12-31 15:40:00,
2013-12-31 13:45:00,41.8,25.4,31.81,West,267,6.0,9.0,52,0.00,,,0.00,Wunderground v.1.15,2013-12-31 15:45:00,
2013-12-31 13:50:00,41.9,24.6,31.81,West,269,8.0,10.0,50,0.00,,,0.00,Wunderground v.1.15,2013-12-31 15:50:00,
2013-12-31 14:00:00,42.3,25.0,31.81,West,275,8.0,8.0,50,0.00,,,0.00,Wunderground v.1.15,2013-12-31 16:00:00,
2013-12-31 14:05:00,42.7,25.0,31.81,WSW,240,9.0,13.0,50,0.00,,,0.00,weatherlink.com 1.10,2013-12-31 16:05:00,
2013-12-31 14:15:00,43.3,24.4,31.81,West,269,10.0,15.0,47,0.00,,,0.00,Wunderground v.1.15,2013-12-31 16:15:00,
2013-12-31 14:21:00,43.6,24.0,31.81,West,261,7.0,19.0,46,0.00,,,0.00,weatherlink.com 1.10,2013-12-31 16:21:00,
2013-12-31 14:30:00,43.8,23.8,31.81,West,259,12.0,14.0,45,0.00,,,0.00,Wunderground v.1.15,2013-12-31 16:30:00,
2013-12-31 14:37:00,44.3,24.0,31.81,WSW,257,12.0,18.0,45,0.00,,,0.00,weatherlink.com 1.10,2013-12-31 16:37:00,
2013-12-31 14:45:00,44.6,24.5,31.81,West,277,11.0,12.0,45,0.00,,,0.00,Wunderground v.1.15,2013-12-31 16:45:00,
2013-12-31 14:53:00,45.0,24.0,31.81,West,259,11.0,17.0,43,0.00,,,0.00,weatherlink.com 1.10,2013-12-31 16:53:00,
2013-12-31 15:00:00,45.6,23.8,31.81,West,265,10.0,17.0,42,0.00,,,0.00,Wunderground v.1.15,2013-12-31 17:00:00,
2013-12-31 15:09:00,45.7,23.0,31.81,WNW,284,5.0,17.0,41,0.00,,,0.00,weatherlink.com 1.10,2013-12-31 17:09:00,
2013-12-31 15:15:00,45.8,23.4,31.81,WSW,249,9.0,10.0,41,0.00,,,0.00,Wunderground v.1.15,2013-12-31 17:15:00,
2013-12-31 15:25:00,46.4,22.1,31.81,West,265,10.0,12.0,38,0.00,,,0.00,Wunderground v.1.15,2013-12-31 17:25:00,
2013-12-31 15:35:00,47.1,23.4,31.81,NW,316,8.0,10.0,39,0.00,,,0.00,Wunderground v.1.15,2013-12-31 17:35:00,
2013-12-31 15:40:00,47.6,22.6,31.81,West,275,6.0,6.0,37,0.00,,,0.00,Wunderground v.1.15,2013-12-31 17:40:00,
2013-12-31 15:50:00,47.3,22.3,31.81,WNW,290,9.0,9.0,37,0.00,,,0.00,Wunderground v.1.15,2013-12-31 17:50:00,
2013-12-31 15:55:00,47.4,23.0,31.81,West,281,9.0,9.0,38,0.00,,,0.00,Wunderground v.1.15,2013-12-31 17:55:00,
2013-12-31 16:05:00,48.1,23.0,31.81,WSW,243,6.0,8.0,37,0.00,,,0.00,Wunderground v.1.15,2013-12-31 18:05:00,
2013-12-31 16:10:00,48.3,22.5,31.81,WNW,302,5.0,6.0,36,0.00,,,0.00,Wunderground v.1.15,2013-12-31 18:10:00,
2013-12-31 16:15:00,48.2,22.5,31.81,WSW,249,7.0,7.0,36,0.00,,,0.00,Wunderground v.1.15,2013-12-31 18:15:00,
2013-12-31 16:25:00,48.8,23.6,31.81,West,280,6.0,12.0,37,0.00,,,0.00,Wunderground v.1.15,2013-12-31 18:25:00,
2013-12-31 16:30:00,49.0,23.0,31.81,West,268,5.0,12.0,35,0.00,,,0.00,weatherlink.com 1.10,2013-12-31 18:30:00,
2013-12-31 16:39:00,49.2,24.0,31.81,NW,306,6.0,6.0,37,0.00,,,0.00,Wunderground v.1.15,2013-12-31 18:39:00,
2013-12-31 16:45:00,49.3,23.4,31.81,NNW,327,6.0,9.0,36,0.00,,,0.00,Wunderground v.1.15,2013-12-31 18:45:00,
2013-12-31 16:50:00,48.9,25.0,31.81,NNW,330,6.0,6.0,39,0.00,,,0.00,Wunderground v.1.15,2013-12-31 18:50:00,
2013-12-31 16:55:00,49.2,25.3,31.81,NW,321,6.0,6.0,39,0.00,,,0.00,Wunderground v.1.15,2013-12-31 18:55:00,
2013-12-31 17:02:00,49.2,25.0,31.81,NW,304,8.0,12.0,38,0.00,,,0.00,weatherlink.com 1.10,2013-12-31 19:02:00,
2013-12-31 17:10:00,49.0,24.5,31.81,NW,305,7.0,8.0,38,0.00,,,0.00,Wunderground v.1.15,2013-12-31 19:10:00,
2013-12-31 17:19:00,48.9,24.0,31.81,North,10,4.0,12.0,38,0.00,,,0.00,weatherlink.com 1.10,2013-12-31 19:19:00,
2013-12-31 17:25:00,49.2,24.6,31.81,NNW,327,6.0,7.0,38,0.00,,,0.00,Wunderground v.1.15,2013-12-31 19:25:00,
2013-12-31 17:30:00,49.3,24.7,31.81,NE,37,5.0,5.0,38,0.00,,,0.00,Wunderground v.1.15,2013-12-31 19:30:00,
2013-12-31 17:35:00,49.2,24.6,31.81,WNW,291,6.0,6.0,38,0.00,,,0.00,Wunderground v.1.15,2013-12-31 19:35:00,
2013-12-31 17:45:00,48.9,23.7,31.81,NNW,333,7.0,10.0,37,0.00,,,0.00,Wunderground v.1.15,2013-12-31 19:45:00,
2013-12-31 17:51:00,48.6,23.0,31.81,NW,324,7.0,14.0,36,0.00,,,0.00,weatherlink.com 1.10,2013-12-31 19:51:00,
2013-12-31 18:00:00,48.5,22.7,31.81,NW,326,7.0,7.0,36,0.00,,,0.00,Wunderground v.1.15,2013-12-31 20:00:00,
2013-12-31 18:07:00,48.7,23.0,31.81,North,350,5.0,13.0,36,0.00,,,0.00,weatherlink.com 1.10,2013-12-31 20:07:00,
2013-12-31 18:15:00,48.9,22.4,31.81,NNW,328,6.0,7.0,35,0.00,,,0.00,Wunderground v.1.15,2013-12-31 20:15:00,
2013-12-31 18:23:00,48.9,21.0,31.81,NNW,344,10.0,10.0,33,0.00,,,0.00,weatherlink.com 1.10,2013-12-31 20:23:00,
2013-12-31 18:30:00,48.7,20.8,31.81,North,350,7.0,8.0,33,0.00,,,0.00,Wunderground v.1.15,2013-12-31 20:30:00,
2013-12-31 18:39:00,48.7,21.0,31.81,NW,318,7.0,15.0,33,0.00,,,0.00,weatherlink.com 1.10,2013-12-31 20:39:00,
2013-12-31 18:45:00,48.7,21.5,31.81,WNW,292,8.0,8.0,34,0.00,,,0.00,Wunderground v.1.15,2013-12-31 20:45:00,
2013-12-31 18:55:00,47.7,20.0,31.81,NW,311,8.0,9.0,33,0.00,,,0.00,Wunderground v.1.15,2013-12-31 20:55:00,
2013-12-31 19:05:00,47.7,20.0,31.81,NW,319,7.0,8.0,33,0.00,,,0.00,Wunderground v.1.15,2013-12-31 21:05:00,
2013-12-31 19:10:00,47.4,20.4,31.81,WNW,300,6.0,7.0,34,0.00,,,0.00,Wunderground v.1.15,2013-12-31 21:10:00,
2013-12-31 19:15:00,47.4,19.7,31.81,NW,321,6.0,7.0,33,0.00,,,0.00,Wunderground v.1.15,2013-12-31 21:15:00,
2013-12-31 19:25:00,47.0,19.3,31.81,NW,319,5.0,8.0,33,0.00,,,0.00,Wunderground v.1.15,2013-12-31 21:25:00,
2013-12-31 19:35:00,46.7,19.8,31.81,North,11,2.0,4.0,34,0.00,,,0.00,Wunderground v.1.15,2013-12-31 21:35:00,
2013-12-31 19:44:00,46.1,20.0,31.81,North,11,0.0,3.0,35,0.00,,,0.00,weatherlink.com 1.10,2013-12-31 21:44:00,
2013-12-31 19:50:00,45.8,19.0,31.81,North,350,2.0,2.0,34,0.00,,,0.00,Wunderground v.1.15,2013-12-31 21:50:00,
2013-12-31 19:55:00,45.6,20.1,31.81,NNW,338,3.0,3.0,36,0.00,,,0.00,Wunderground v.1.15,2013-12-31 21:55:00,
2013-12-31 20:05:00,45.2,19.1,31.81,NNW,338,2.0,2.0,35,0.00,,,0.00,Wunderground v.1.15,2013-12-31 22:05:00,
2013-12-31 20:15:00,44.6,19.9,31.81,NNW,338,1.0,2.0,37,0.00,,,0.00,Wunderground v.1.15,2013-12-31 22:15:00,
2013-12-31 20:25:00,43.9,19.9,31.81,NNW,338,1.0,1.0,38,0.00,,,0.00,Wunderground v.1.15,2013-12-31 22:25:00,
2013-12-31 20:32:00,42.3,23.0,31.81,NNW,338,1.0,4.0,46,0.00,,,0.00,weatherlink.com 1.10,2013-12-31 22:32:00,
2013-12-31 20:40:00,41.3,21.0,31.81,NW,325,3.0,3.0,44,0.00,,,0.00,Wunderground v.1.15,2013-12-31 22:40:00,
2013-12-31 20:48:00,41.5,22.0,31.81,NW,311,3.0,5.0,45,0.00,,,0.00,weatherlink.com 1.10,2013-12-31 22:48:00,
2013-12-31 20:55:00,42.3,23.0,31.81,NW,311,3.0,4.0,46,0.00,,,0.00,Wunderground v.1.15,2013-12-31 22:55:00,
2013-12-31 21:04:00,39.2,25.0,31.81,NW,310,2.0,3.0,56,0.00,,,0.00,weatherlink.com 1.10,2013-12-31 23:04:00,
2013-12-31 21:10:00,37.8,22.6,31.81,NW,311,1.0,1.0,54,0.00,,,0.00,Wunderground v.1.15,2013-12-31 23:10:00,
2013-12-31 21:15:00,37.7,23.0,31.81,NW,311,1.0,2.0,55,0.00,,,0.00,Wunderground v.1.15,2013-12-31 23:15:00,
2013-12-31 21:20:00,37.5,23.0,31.81,NW,310,1.0,3.0,55,0.00,,,0.00,weatherlink.com 1.10,2013-12-31 23:20:00,
2013-12-31 21:30:00,37.9,23.6,31.81,NW,311,1.0,2.0,56,0.00,,,0.00,Wunderground v.1.15,2013-12-31 23:30:00,
2013-12-31 21:35:00,37.3,23.0,31.81,NW,311,1.0,2.0,56,0.00,,,0.00,Wunderground v.1.15,2013-12-31 23:35:00,
2013-12-31 21:40:00,36.8,23.4,31.81,NW,310,1.0,1.0,58,0.00,,,0.00,Wunderground v.1.15,2013-12-31 23:40:00,
2013-12-31 21:50:00,35.6,23.9,31.81,NW,311,0.0,0.0,62,0.00,,,0.00,Wunderground v.1.15,2013-12-31 23:50:00,
2013-12-31 21:55:00,35.4,23.3,31.81,NW,310,1.0,2.0,61,0.00,,,0.00,Wunderground v.1.15,2013-12-31 23:55:00,
2013-12-31 22:05:00,36.1,23.5,31.81,NW,311,2.0,2.0,60,0.00,,,0.00,Wunderground v.1.15,2014-01-01 00:05:00,
2013-12-31 22:15:00,34.4,24.2,31.81,NW,311,0.0,1.0,66,0.00,,,0.00,Wunderground v.1.15,2014-01-01 00:15:00,
2013-12-31 22:25:00,33.1,23.7,31.81,NW,311,0.0,0.0,68,0.00,,,0.00,Wunderground v.1.15,2014-01-01 00:25:00,
2013-12-31 22:35:00,32.1,23.8,31.81,NW,311,0.0,0.0,71,0.00,,,0.00,Wunderground v.1.15,2014-01-01 00:35:00,
2013-12-31 22:40:00,31.7,24.0,31.81,NW,310,0.0,0.0,73,0.00,,,0.00,Wunderground v.1.15,2014-01-01 00:40:00,
2013-12-31 22:50:00,31.2,24.2,31.81,NW,311,0.0,0.0,75,0.00,,,0.00,Wunderground v.1.15,2014-01-01 00:50:00,
2013-12-31 22:55:00,31.1,24.1,31.81,NW,310,0.0,2.0,75,0.00,,,0.00,Wunderground v.1.15,2014-01-01 00:55:00,
2013-12-31 23:05:00,31.0,24.0,31.81,NW,311,1.0,1.0,75,0.00,,,0.00,Wunderground v.1.15,2014-01-01 01:05:00,
2013-12-31 23:13:00,30.7,24.0,31.81,NW,310,0.0,1.0,76,0.00,,,0.00,weatherlink.com 1.10,2014-01-01 01:13:00,
2013-12-31 23:20:00,30.3,24.0,31.81,NW,311,0.0,0.0,77,0.00,,,0.00,Wunderground v.1.15,2014-01-01 01:20:00,
2013-12-31 23:29:00,30.7,24.0,31.81,NW,310,2.0,2.0,75,0.00,,,0.00,weatherlink.com 1.10,2014-01-01 01:29:00,
2013-12-31 23:35:00,30.4,23.7,31.81,NW,310,0.0,2.0,76,0.00,,,0.00,Wunderground v.1.15,2014-01-01 01:35:00,
2013-12-31 23:40:00,29.9,23.6,31.81,NW,311,0.0,0.0,77,0.00,,,0.00,Wunderground v.1.15,2014-01-01 01:40:00,
2013-12-31 23:45:00,29.6,24.0,31.81,NW,311,0.0,2.0,78,0.00,,,0.00,weatherlink.com 1.10,2014-01-01 01:45:00,
2013-12-31 23:55:00,29.4,23.4,31.81,NW,311,0.0,1.0,78,0.00,,,0.00,Wunderground v.1.15,2014-01-01 01:55:00,